Regional Weather Roundup
Issued by NWS Green Bay, WI

Home | Current Version | Previous Version | Graphics & Text | Print | Product List | Glossary Off
Versions: 1 2 3 4 5 6 7 8 9 10 11 12 13 14 15 16 17 18 19 20 21 22 23 24 25 26 27 28 29 30 31 32 33 34 35 36 37 38 39 40 41 42 43 44 45 46 47 48 49 50

000
ASUS43 KGRB 252059
RWRGRB

NORTH-CENTRAL AND NORTHEAST WISCONSIN REGIONAL WEATHER ROUNDUP
NATIONAL WEATHER SERVICE GREEN BAY WI
400 PM CDT SAT APR 25 2015

WIZ005-009-010>012-018-019-252200-
NORTH CENTRAL WISCONSIN

CITY           SKY/WX    TMP DP  RH WIND       PRES   REMARKS
IRONWOOD       SUNNY     46  27  46 N12G21    29.90S
MANITOWISH WTR NOT AVBL
ARBOR VITAE    NOT AVBL
EAGLE RIVER    NOT AVBL
LAND O LAKES   NOT AVBL
RHINELANDER    SUNNY     55  16  21 NE9       29.87S
PHILLIPS       NOT AVBL
ANTIGO         NOT AVBL
TOMAHAWK       NOT AVBL
MERRILL        NOT AVBL
$$

WIZ013-073-252200-
NORTHEAST WISCONSIN

CITY           SKY/WX    TMP DP  RH WIND       PRES   REMARKS
IRON MOUNTAIN  SUNNY     55  16  21 N10G18    29.87F
MARINETTE      MOSUNNY   45  16  31 E17       29.91F
$$

WIZ017-030-035>037-045-252200-
CENTRAL WISCONSIN

CITY           SKY/WX    TMP DP  RH WIND       PRES   REMARKS
MEDFORD        NOT AVBL
WAUSAU         CLOUDY    57  15  19 E14G23    29.83S
MOSINEE        NOT AVBL
MARSHFIELD     MOSUNNY   58  21  24 E14       29.84S
WISC RAPIDS    SUNNY     56  11  16 E16G25    29.86R
STEVENS POINT  NOT AVBL
WAUPACA        NOT AVBL
SHAWANO        NOT AVBL
CLINTONVILLE   NOT AVBL
$$

WIZ038-039-048-051-252200-
FOX VALLEY

CITY           SKY/WX    TMP DP  RH WIND       PRES   REMARKS
NWS GREEN BAY  MOSUNNY   48  21  34 NE17      29.89S
APPLETON       MOSUNNY   50   7  17 NE17G23   29.87R
OSHKOSH        MOSUNNY   51  27  39 NE18      29.85R
FOND DU LAC    MOSUNNY   54  21  27 NE16      29.84S
$$

WIZ022-050-052-252200-
EAST CENTRAL WISCONSIN

CITY           SKY/WX    TMP DP  RH WIND       PRES   REMARKS
STURGEON BAY   CLOUDY    45  10  24 E10       29.93S
MANITOWOC      NOT AVBL
SHEBOYGAN      MOSUNNY   47  25  42 N22       29.86S
$$

LMZ563-521-522-541>543-252200-
LAKESHORE

STATION/POSITION TIME  TEMP    WIND        PRES    VSBY  WAVE
                       AIR SEA DIR/SP/G                  HT/PER
                 (UTC) (F)     (DEG/KT/KT) (MB)    (MI)  (FT/S)
SHEBOYGAN LKSHOR 2000   38      20/ 20/ 24 1012.0F
KEWAUNEE LKSHORE 2000   40      30/ 17/ 23 1011.4F
NORTHPORT PIER   2000   44      50/ 12/ 16 1013.5F
SISTER BAY LKSHO 2000   51     100/ 12/ 23   N/A
CHAMBERS ISLAND  2000   39      10/ 12/ 14 1013.5F
MENOMINEE LKSHOR 2000   39      30/ 15/ 16 1013.8F
$$



USA.gov is the U.S. government's official web portal to all federal, state and local government web resources and services.